Terminal Aerodrome Forecast
Issued by NWS Cleveland, OH

Home | Current Version | Previous Version | Graphics & Text | Print | Product List | Glossary On
Versions: 1 2 3 4 5 6 7 8 9 10 11 12
000
FTUS41 KCLE 260530
TAFCAK
TAF
KCAK 260530Z 2606/2706 25005KT P6SM BKN250
     FM260700 30003KT 6SM BR SKC
      TEMPO 2609/2613 3SM BR
     FM261600 36007KT P6SM SCT045
     FM270100 VRB03KT P6SM SKC=

USA.gov is the U.S. government's official web portal to all federal, state and local government web resources and services.